Visibility
15.0 15.0 15.0 7.1 0.1 0.3 0.4 12.1 0.1 14.5 11.5 15.0 15.0 15.0 15.0 15.0 15.0 15.0 15.0 15.0 15.0 15.0 15.0 15.0 15.0 14.8 4.7 15.0 14.6 10.7 6.9 10.2 15.0 15.0 15.0 15.0 15.0 15.0 15.0 15.0 15.0 15.0 11.3 15.0
2.2 15.0 15.0 15.0 15.0 15.0 13.5 6.0 6.3 15.0 15.0 15.0 15.0 15.0 15.0 15.0 15.0 15.0 15.0 15.0 15.0 15.0 15.0 15.0 15.0 6.2 0.2 15.0 15.0 15.0 11.1 9.5 15.0 15.0 15.0 15.0 15.0 15.0 15.0 15.0 15.0 15.0 15.0 15.0
9.3 15.0 15.0 15.0 15.0 15.0 15.0 15.0 15.0 15.0 15.0 15.0 15.0 15.0 15.0 15.0 15.0 15.0 15.0 15.0 15.0 15.0 15.0 15.0 14.4 3.3 0.3 3.3 11.6 7.6 15.0 15.0 15.0 15.0 15.0 15.0 15.0 15.0 15.0 15.0 11.0 15.0 15.0 15.0
0.5 15.0 3.6 15.0 15.0 15.0 15.0 15.0 15.0 15.0 15.0 15.0 15.0 15.0 15.0 15.0 15.0 15.0 15.0 15.0 15.0 15.0 15.0 15.0 9.2 3.4 3.2 2.8 4.6 15.0 15.0 15.0 15.0 2.4 0.1 15.0 7.6 6.9 15.0 15.0 15.0 6.9 0.2 0.1
0.9 14.6 15.0 15.0 15.0 15.0 15.0 15.0 15.0 15.0 15.0 15.0 15.0 15.0 15.0 15.0 15.0 15.0 15.0 10.0 15.0 15.0 15.0 6.4 14.8 2.4 0.3 4.4 15.0 15.0 0.3 3.0 0.1 0.1 0.1 0.1 0.1 0.1 15.0 1.4 3.0 4.6 0.1 4.4
15.0 15.0 15.0 15.0 15.0 15.0 15.0 15.0 15.0 15.0 15.0 15.0 15.0 15.0 15.0 15.0 15.0 15.0 15.0 13.7 15.0 15.0 15.0 15.0 15.0 15.0 7.4 2.9 15.0 15.0 1.7 7.4 15.0 0.7 0.1 0.0 0.0 0.1 15.0 14.8 2.1 15.0 15.0 9.2
14.8 15.0 15.0 15.0 15.0 15.0 15.0 15.0 15.0 15.0 15.0 15.0 15.0 15.0 15.0 14.0 12.1 2.6 0.2 0.1 15.0 3.4 15.0 15.0 15.0 15.0 15.0 15.0 15.0 15.0 15.0 15.0 15.0 1.5 0.1 0.0 0.0 0.1 5.6 15.0 10.2 10.6 3.5 0.1
14.8 12.8 13.7 15.0 15.0 15.0 15.0 15.0 15.0 15.0 15.0 15.0 15.0 15.0 15.0 1.5 0.0 0.3 0.0 15.0 15.0 15.0 15.0 15.0 15.0 15.0 15.0 14.1 15.0 15.0 15.0 15.0 15.0 15.0 15.0 0.1 0.0 0.0 0.1 6.4 15.0 10.3 0.4 5.3
15.0 15.0 15.0 15.0 15.0 15.0 15.0 15.0 15.0 15.0 15.0 15.0 15.0 15.0 0.2 6.0 15.0 8.0 15.0 15.0 15.0 15.0 15.0 15.0 15.0 15.0 15.0 15.0 15.0 15.0 15.0 15.0 15.0 15.0 15.0 14.4 0.1 0.0 0.0 0.0 3.2 15.0 15.0 15.0
15.0 15.0 15.0 15.0 15.0 15.0 15.0 15.0 15.0 15.0 15.0 15.0 14.9 15.0 15.0 15.0 15.0 15.0 15.0 15.0 15.0 15.0 15.0 15.0 15.0 15.0 15.0 15.0 15.0 15.0 15.0 15.0 15.0 15.0 15.0 15.0 15.0 0.1 0.0 0.0 0.1 14.6 14.4 13.3
15.0 15.0 15.0 15.0 15.0 15.0 15.0 15.0 15.0 15.0 15.0 15.0 15.0 13.0 15.0 15.0 15.0 15.0 15.0 15.0 15.0 15.0 15.0 15.0 15.0 15.0 15.0 15.0 15.0 15.0 15.0 15.0 10.6 15.0 15.0 15.0 15.0 1.4 0.0 0.0 0.0 0.0 2.0 5.2
15.0 15.0 15.0 15.0 15.0 15.0 15.0 15.0 15.0 15.0 15.0 15.0 15.0 15.0 15.0 15.0 15.0 15.0 15.0 15.0 15.0 15.0 15.0 15.0 15.0 15.0 15.0 15.0 11.4 13.6 15.0 15.0 11.1 14.9 11.8 15.0 15.0 0.1 0.1 0.0 0.0 0.0 0.0 0.0
15.0 15.0 15.0 15.0 15.0 15.0 15.0 15.0 15.0 15.0 15.0 15.0 15.0 15.0 15.0 15.0 15.0 15.0 15.0 15.0 15.0 15.0 15.0 12.6 14.9 15.0 15.0 15.0 15.0 5.7 6.2 15.0 15.0 14.9 15.0 15.0 10.9 0.0 0.0 0.1 0.0 0.0 0.0 0.0
15.0 15.0 15.0 15.0 15.0 15.0 15.0 15.0 15.0 15.0 15.0 15.0 15.0 15.0 15.0 15.0 15.0 15.0 15.0 15.0 15.0 15.0 14.0 15.0 15.0 15.0 15.0 15.0 14.4 9.8 5.6 14.3 15.0 15.0 15.0 15.0 15.0 0.1 0.0 0.2 0.3 0.6 0.0 0.0
15.0 15.0 15.0 15.0 15.0 15.0 15.0 15.0 15.0 15.0 15.0 15.0 15.0 15.0 15.0 15.0 15.0 15.0 15.0 15.0 15.0 15.0 15.0 15.0 15.0 15.0 15.0 15.0 15.0 15.0 13.6 12.5 12.4 15.0 15.0 10.8 15.0 12.4 0.1 0.0 0.1 0.2 0.9 0.0
15.0 15.0 15.0 15.0 15.0 15.0 15.0 15.0 15.0 15.0 15.0 15.0 15.0 15.0 15.0 15.0 15.0 15.0 15.0 15.0 15.0 15.0 15.0 15.0 15.0 15.0 15.0 15.0 15.0 15.0 15.0 15.0 7.1 13.0 10.1 13.9 15.0 8.7 15.0 0.1 0.2 0.1 0.5 0.2
15.0 15.0 15.0 15.0 15.0 15.0 15.0 15.0 15.0 15.0 15.0 15.0 15.0 15.0 15.0 15.0 15.0 15.0 15.0 15.0 15.0 15.0 15.0 15.0 15.0 15.0 15.0 15.0 15.0 15.0 15.0 15.0 12.1 10.8 14.4 5.4 2.8 1.7 15.0 0.3 0.1 0.1 0.1 0.1
15.0 15.0 15.0 15.0 13.1 15.0 10.5 14.8 15.0 15.0 11.8 0.2 0.0 0.1 0.1 0.1 3.9 15.0 15.0 15.0 15.0 15.0 15.0 15.0 15.0 15.0 15.0 15.0 15.0 15.0 15.0 15.0 8.0 14.8 15.0 6.8 9.6 10.1 1.4 15.0 0.1 0.1 0.1 0.1
15.0 15.0 15.0 14.6 0.0 0.0 0.0 0.0 0.0 0.1 0.1 0.2 0.1 0.2 0.6 1.1 11.9 15.0 15.0 3.4 4.6 10.8 14.8 15.0 15.0 15.0 15.0 15.0 15.0 15.0 15.0 15.0 15.0 6.2 12.2 15.0 11.8 15.0 0.9 7.0 8.4 0.2 0.1 0.1
0.0 4.3 15.0 15.0 15.0 12.9 8.0 0.8 2.2 0.9 11.1 13.2 12.9 11.0 12.7 15.0 12.6 13.0 4.0 0.4 0.1 0.8 2.8 15.0 15.0 15.0 15.0 15.0 15.0 15.0 15.0 15.0 15.0 15.0 5.2 15.0 11.1 5.5 15.0 0.5 3.1 4.0 0.1 0.1
0.1 0.1 10.1 15.0 15.0 15.0 15.0 15.0 15.0 15.0 14.6 4.7 0.5 0.3 1.6 1.2 6.4 8.9 13.4 0.7 0.1 0.2 4.8 15.0 15.0 15.0 15.0 15.0 15.0 15.0 15.0 15.0 15.0 15.0 6.9 6.2 15.0 13.6 8.6 0.3 0.1 0.4 0.3 0.1
0.2 0.2 0.4 0.5 3.0 15.0 15.0 13.6 9.4 4.9 2.2 4.2 2.1 0.3 0.2 0.3 0.5 4.8 6.1 6.0 10.6 15.0 15.0 15.0 15.0 15.0 15.0 6.5 15.0 15.0 15.0 15.0 15.0 15.0 15.0 15.0 8.5 2.9 3.1 2.0 0.1 0.1 1.8 7.2
10.5 15.0 15.0 15.0 15.0 15.0 11.0 14.8 15.0 0.8 3.5 0.4 0.1 0.1 0.2 0.2 0.8 15.0 15.0 15.0 15.0 15.0 15.0 15.0 15.0 15.0 15.0 15.0 15.0 15.0 15.0 15.0 15.0 15.0 15.0 15.0 15.0 6.1 2.0 1.6 0.1 0.0 0.0 0.3
15.0 15.0 12.5 15.0 15.0 15.0 15.0 15.0 15.0 14.6 4.1 2.1 0.7 1.3 14.9 15.0 15.0 15.0 15.0 15.0 15.0 15.0 15.0 15.0 15.0 15.0 15.0 15.0 15.0 15.0 15.0 15.0 15.0 15.0 15.0 15.0 15.0 7.8 5.2 2.1 1.0 0.0 0.0 0.1
15.0 15.0 15.0 15.0 15.0 15.0 11.3 12.6 8.7 13.9 15.0 15.0 15.0 15.0 15.0 15.0 15.0 15.0 15.0 15.0 15.0 15.0 15.0 15.0 15.0 15.0 15.0 15.0 15.0 15.0 15.0 15.0 15.0 15.0 13.3 15.0 15.0 12.4 15.0 15.0 10.7 0.1 0.0 0.0
15.0 15.0 15.0 15.0 12.6 12.5 11.1 15.0 15.0 15.0 15.0 15.0 15.0 15.0 15.0 15.0 15.0 15.0 15.0 15.0 15.0 15.0 15.0 15.0 15.0 15.0 15.0 15.0 15.0 15.0 15.0 15.0 15.0 15.0 15.0 15.0 15.0 15.0 15.0 15.0 14.4 2.5 0.0 0.0
15.0 15.0 15.0 15.0 15.0 15.0 14.8 15.0 15.0 15.0 15.0 15.0 15.0 15.0 15.0 15.0 15.0 15.0 15.0 15.0 15.0 15.0 15.0 15.0 15.0 15.0 15.0 15.0 15.0 15.0 15.0 15.0 15.0 15.0 15.0 15.0 15.0 15.0 15.0 15.0 15.0 12.1 0.1 0.0